Probability
0 0 0 0 0 0 0 0 0 0 0 0 0 0 0 0 0 0 0 0 0 0 0 0 0 0 0 0 0 0 0 0 0 0 0 0 0 0 0 0 0 0 0 0
0 0 0 0 0 0 0 0 0 0 0 0 0 0 0 0 0 0 0 0 0 0 0 0 0 0 0 0 0 0 0 0 0 0 0 0 0 0 0 0 0 0 0 0
0 0 0 0 0 0 0 0 0 0 0 0 0 0 0 0 0 0 0 0 0 0 0 0 0 0 0 0 0 0 0 0 0 0 0 0 0 0 0 0 0 0 0 0
0 0 0 0 0 0 0 0 0 0 0 0 0 0 0 0 0 0 0 0 0 0 0 0 0 0 0 0 0 0 0 0 0 0 0 0 0 0 0 0 0 0 0 0
0 0 0 0 0 0 0 0 0 0 0 0 0 0 0 0 0 0 0 0 0 0 0 0 0 0 0 0 0 0 0 0 0 0 0 0 0 0 0 0 0 0 0 0
0 0 0 0 0 0 0 0 0 0 0 0 0 0 0 0 0 0 0 0 0 0 0 0 0 0 0 0 0 0 0 0 0 0 0 0 0 0 0 0 0 0 0 0
0 0 0 0 0 0 0 0 0 0 0 0 0 0 0 0 0 0 0 0 0 0 0 0 0 0 0 0 0 0 0 0 0 0 0 0 0 0 0 0 0 0 0 0
0 0 0 0 0 0 0 0 0 0 0 0 0 0 0 0 0 0 0 0 0 0 0 0 0 0 0 0 0 0 0 0 0 0 0 0 0 0 0 0 0 0 0 0
0 0 0 0 0 0 0 0 0 0 0 0 0 0 0 0 0 0 0 0 0 0 0 0 0 0 0 0 0 0 0 0 0 0 0 0 0 0 0 0 0 0 0 0
0 0 0 0 0 0 0 0 0 0 0 0 0 0 0 0 0 0 0 0 0 0 0 0 0 0 0 0 0 0 0 0 0 0 0 0 0 0 0 0 0 0 0 0
0 0 0 0 0 0 0 0 0 0 0 0 0 0 0 0 0 0 0 0 0 0 0 0 0 0 0 0 0 0 0 0 0 0 0 0 0 0 0 0 0 0 0 0
0 0 0 0 0 0 0 0 0 0 0 0 0 0 0 0 0 0 0 0 0 0 0 0 0 0 0 0 0 0 0 0 0 0 0 0 0 0 0 0 0 0 0 0
0 0 0 0 0 0 0 0 0 0 0 0 0 0 0 0 0 0 0 0 0 0 0 0 0 0 0 0 0 0 0 0 0 0 0 0 0 0 0 0 0 0 0 0
0 0 0 0 0 0 0 0 0 0 0 0 0 0 0 0 0 0 0 0 0 0 0 0 0 0 0 0 0 0 0 0 0 0 0 0 0 0 0 0 0 0 0 0
0 0 0 0 0 0 0 0 0 0 0 0 0 0 0 0 0 0 0 0 0 0 0 0 0 0 0 0 0 0 0 0 0 0 0 0 0 0 0 0 0 0 0 0
0 0 0 0 0 0 0 0 0 0 0 0 0 0 0 0 0 0 0 0 0 0 0 0 0 0 0 0 0 0 0 0 0 0 0 0 0 0 0 0 0 0 0 0
0 0 0 0 0 0 0 0 0 0 0 0 0 0 0 0 0 0 0 0 0 0 0 0 0 0 0 0 0 0 0 0 0 0 0 0 0 0 0 0 0 0 0 0
0 0 0 0 0 0 0 0 0 0 0 0 0 0 0 0 0 0 0 0 0 0 0 0 0 0 0 0 0 0 0 0 0 0 0 0 0 0 0 0 0 0 0 0
0 0 0 0 0 0 0 0 0 0 0 0 0 0 0 0 0 0 0 0 0 0 0 0 0 0 0 0 0 0 0 0 0 0 0 0 0 0 0 0 0 0 0 0
0 0 0 0 0 0 0 0 0 0 0 0 0 0 0 0 0 0 0 0 0 0 0 0 0 0 0 0 0 0 0 0 0 0 0 0 0 0 0 0 0 0 0 0
0 0 0 0 0 0 0 0 0 0 0 0 0 0 0 0 0 0 0 0 0 0 0 0 0 0 0 0 0 0 0 0 0 0 0 0 0 0 0 0 0 0 0 0
0 0 0 0 0 0 0 0 0 0 0 0 0 0 0 0 0 0 0 0 0 0 0 0 0 0 0 0 0 0 0 0 0 0 0 0 0 0 0 0 0 0 0 0
0 0 0 0 0 0 0 0 0 0 0 0 0 0 0 0 0 0 0 0 0 0 0 0 0 0 0 0 0 0 0 0 0 0 0 0 0 0 0 0 0 0 0 0
0 0 0 0 0 0 0 0 0 0 0 0 0 0 0 0 0 0 0 0 0 0 0 0 0 0 0 0 0 0 0 0 0 0 0 0 0 0 0 0 0 0 0 0
0 0 0 0 0 0 0 0 0 0 0 0 0 0 0 0 0 0 0 0 0 0 0 0 0 0 0 0 0 0 0 0 0 0 0 0 0 0 0 0 0 0 0 0
0 0 0 0 0 0 0 0 0 0 0 0 0 0 0 0 0 0 0 0 0 0 0 0 0 0 0 0 0 0 0 0 0 0 0 0 0 0 0 0 0 0 0 0
0 0 0 0 0 0 0 0 0 0 0 0 0 0 0 0 0 0 0 0 0 0 0 0 0 0 0 0 0 0 0 0 0 0 0 0 0 0 0 0 0 0 0 0
Height
5529 5538 5544 5552 5560 5567 5573 5582 5590 5601 5610 5619 5623 5627 5631 5635 5638 5642 5647 5651 5654 5657 5659 5661 5663 5666 5668 5670 5671 5673 5675 5676 5677 5678 5679 5679 5680 5680 5680 5679 5679 5679 5678 5677
5518 5526 5532 5539 5549 5556 5564 5573 5581 5590 5599 5609 5612 5615 5620 5624 5628 5632 5637 5641 5644 5647 5649 5652 5654 5656 5658 5660 5662 5663 5665 5666 5667 5668 5669 5669 5670 5670 5670 5670 5669 5669 5668 5668
5507 5515 5520 5527 5540 5548 5556 5564 5571 5579 5592 5597 5601 5604 5609 5614 5617 5622 5627 5631 5634 5637 5640 5642 5644 5646 5648 5650 5652 5654 5655 5656 5657 5658 5659 5659 5660 5660 5660 5660 5660 5659 5659 5658
5496 5503 5508 5525 5533 5539 5546 5555 5562 5571 5579 5584 5590 5594 5598 5602 5607 5611 5616 5620 5624 5627 5630 5633 5635 5637 5639 5640 5642 5644 5645 5647 5648 5649 5649 5650 5650 5650 5650 5650 5650 5649 5649 5648
5486 5491 5501 5515 5523 5530 5536 5544 5552 5560 5567 5573 5577 5580 5586 5592 5596 5601 5605 5610 5614 5617 5620 5623 5625 5627 5629 5631 5633 5634 5636 5637 5638 5639 5639 5640 5640 5641 5641 5640 5640 5639 5639 5637
5477 5483 5493 5509 5516 5520 5526 5532 5542 5548 5555 5560 5564 5569 5579 5583 5586 5591 5595 5599 5603 5607 5610 5613 5615 5618 5620 5621 5623 5625 5626 5627 5628 5629 5630 5630 5631 5631 5631 5631 5630 5629 5628 5627
5467 5474 5485 5497 5503 5508 5516 5527 5534 5539 5544 5549 5554 5561 5569 5571 5575 5579 5584 5589 5593 5596 5600 5603 5606 5608 5610 5612 5614 5615 5616 5617 5619 5620 5620 5621 5621 5621 5621 5621 5620 5619 5618 5617
5458 5467 5481 5487 5491 5499 5508 5517 5522 5527 5533 5538 5544 5550 5555 5560 5565 5569 5574 5579 5583 5587 5590 5593 5596 5598 5601 5603 5605 5605 5607 5608 5609 5610 5611 5611 5612 5612 5611 5611 5610 5609 5608 5606
5451 5462 5471 5474 5481 5489 5497 5504 5510 5516 5522 5528 5534 5540 5545 5550 5555 5560 5565 5569 5573 5577 5581 5584 5586 5589 5591 5593 5594 5595 5597 5598 5600 5600 5601 5602 5602 5602 5601 5601 5600 5599 5597 5595
5443 5452 5459 5465 5471 5478 5486 5493 5499 5506 5512 5518 5524 5530 5536 5541 5546 5551 5555 5559 5563 5567 5571 5574 5577 5579 5581 5583 5584 5586 5587 5589 5590 5591 5591 5592 5592 5592 5591 5590 5589 5588 5586 5584
5434 5444 5450 5457 5463 5470 5476 5484 5490 5496 5503 5509 5515 5521 5527 5532 5537 5541 5546 5550 5554 5557 5561 5564 5567 5569 5571 5573 5575 5576 5578 5579 5580 5581 5581 5582 5582 5581 5581 5580 5579 5577 5575 5573
5427 5436 5441 5448 5455 5460 5467 5474 5481 5487 5494 5500 5506 5513 5518 5523 5528 5532 5536 5540 5544 5548 5551 5554 5557 5559 5562 5563 5565 5567 5568 5569 5570 5571 5571 5572 5572 5571 5570 5569 5567 5566 5563 5561
5419 5424 5430 5438 5445 5451 5458 5465 5472 5478 5485 5492 5498 5504 5509 5514 5518 5523 5527 5531 5535 5538 5542 5545 5547 5550 5552 5554 5556 5557 5559 5560 5561 5561 5562 5562 5561 5560 5559 5558 5556 5554 5552 5549
5409 5414 5421 5428 5436 5443 5450 5456 5463 5470 5476 5483 5489 5495 5500 5505 5509 5513 5518 5522 5525 5529 5532 5535 5538 5541 5543 5545 5546 5548 5549 5550 5551 5551 5551 5551 5551 5550 5549 5547 5545 5543 5541 5537
5401 5406 5413 5420 5427 5435 5441 5448 5455 5462 5468 5475 5481 5486 5492 5496 5501 5505 5509 5513 5516 5520 5523 5526 5529 5531 5533 5535 5537 5538 5539 5540 5541 5541 5541 5541 5540 5539 5538 5536 5534 5532 5529 5526
5393 5398 5405 5412 5419 5426 5433 5440 5447 5454 5460 5466 5473 5478 5483 5488 5492 5496 5501 5504 5508 5511 5514 5517 5520 5522 5524 5526 5527 5528 5529 5530 5530 5531 5530 5530 5529 5528 5527 5525 5523 5520 5517 5514
5384 5391 5398 5404 5411 5418 5425 5432 5439 5445 5452 5458 5464 5470 5475 5480 5484 5489 5492 5496 5500 5503 5506 5508 5511 5513 5515 5516 5518 5519 5520 5520 5520 5520 5520 5519 5518 5517 5515 5513 5511 5508 5505 5501
5377 5384 5390 5396 5403 5410 5417 5424 5430 5437 5443 5450 5456 5462 5467 5472 5477 5481 5484 5488 5492 5495 5497 5500 5502 5504 5505 5507 5508 5509 5510 5510 5510 5510 5510 5509 5507 5506 5504 5502 5499 5496 5492 5488
5371 5377 5383 5389 5396 5403 5409 5416 5423 5429 5435 5442 5448 5454 5459 5464 5468 5473 5477 5480 5484 5486 5489 5491 5493 5495 5496 5498 5499 5500 5500 5500 5500 5500 5499 5498 5496 5495 5492 5490 5487 5483 5480 5475
5366 5371 5377 5383 5390 5396 5403 5410 5416 5422 5428 5434 5440 5446 5451 5456 5460 5465 5468 5472 5475 5478 5481 5483 5485 5486 5487 5488 5489 5490 5490 5490 5490 5489 5488 5487 5485 5483 5481 5478 5474 5471 5467 5462
5361 5367 5373 5379 5385 5392 5398 5404 5410 5416 5422 5428 5434 5439 5444 5449 5453 5457 5461 5464 5467 5470 5472 5474 5476 5477 5478 5479 5480 5480 5480 5480 5479 5479 5477 5476 5474 5471 5468 5465 5462 5458 5453 5449
5358 5364 5370 5376 5382 5388 5394 5400 5406 5411 5417 5422 5427 5432 5437 5441 5446 5449 5453 5456 5459 5461 5464 5466 5467 5468 5469 5470 5470 5470 5470 5470 5469 5468 5466 5464 5462 5459 5456 5453 5449 5444 5440 5435
5357 5362 5367 5373 5379 5385 5390 5396 5402 5407 5412 5417 5422 5426 5431 5435 5438 5442 5445 5448 5451 5453 5455 5457 5458 5459 5460 5461 5461 5460 5460 5459 5458 5456 5455 5452 5450 5447 5443 5440 5435 5431 5426 5421
5356 5361 5366 5371 5377 5382 5388 5393 5398 5402 5407 5412 5416 5420 5424 5428 5431 5435 5438 5440 5443 5445 5447 5448 5449 5450 5450 5451 5450 5450 5449 5448 5447 5445 5443 5440 5437 5434 5430 5426 5422 5417 5412 5407
5355 5359 5364 5369 5375 5380 5384 5389 5394 5398 5403 5407 5411 5415 5418 5422 5425 5428 5430 5433 5435 5437 5438 5440 5440 5441 5441 5441 5440 5439 5438 5437 5435 5433 5431 5428 5424 5421 5417 5412 5407 5403 5397 5392
5353 5358 5363 5367 5372 5377 5381 5386 5390 5394 5398 5402 5405 5409 5412 5415 5418 5420 5423 5425 5427 5428 5429 5430 5431 5431 5431 5431 5430 5429 5427 5426 5424 5421 5418 5415 5411 5407 5402 5398 5393 5388 5383 5378
5352 5357 5361 5366 5370 5374 5378 5383 5387 5390 5394 5397 5400 5403 5406 5409 5411 5413 5415 5417 5418 5420 5421 5421 5421 5421 5421 5420 5419 5418 5416 5414 5411 5408 5405 5401 5397 5393 5388 5383 5378 5373 5368 5363
Wind_Speed
55 54 55 55 55 55 55 53 52 46 44 40 39 38 38 37 36 36 34 33 33 33 34 34 34 34 35 35 36 36 36 36 36 37 37 38 37 38 38 38 38 38 38 38
55 55 56 56 55 53 52 51 49 47 45 40 39 39 39 39 38 37 35 34 33 33 33 34 34 34 34 34 34 35 35 35 36 36 37 37 37 37 37 37 37 37 37 38
56 56 57 57 54 53 51 49 48 47 41 40 41 41 40 39 40 39 37 36 35 34 33 33 33 34 34 34 34 34 34 35 35 36 36 36 36 36 36 36 36 37 37 38
56 56 58 53 50 51 51 49 47 45 42 42 41 40 40 40 40 39 38 37 36 35 34 33 33 33 34 34 34 34 34 35 35 35 35 35 35 35 35 36 36 36 37 37
53 55 55 52 49 47 49 49 46 44 43 42 41 42 42 41 40 39 37 36 36 36 35 34 33 33 34 34 34 34 34 34 34 34 34 34 34 35 35 35 35 36 37 37
50 51 53 50 47 44 46 48 45 45 44 44 44 44 40 38 39 38 38 37 36 36 35 34 33 33 34 34 34 33 33 33 33 34 34 34 34 34 34 35 36 36 37 38
46 47 48 48 49 47 47 42 40 42 44 44 45 42 39 39 39 39 38 38 37 35 35 34 34 34 34 33 33 33 33 33 33 33 34 34 34 34 35 35 36 37 38 39
41 43 43 45 47 46 42 41 39 39 41 43 43 42 41 40 40 39 38 38 37 36 35 34 34 34 34 34 33 33 33 33 33 34 34 34 34 34 35 36 36 37 38 39
38 41 40 42 43 42 42 42 41 39 39 40 40 40 39 39 39 38 38 37 37 35 34 34 33 33 34 34 34 34 34 34 34 34 34 34 34 35 36 36 37 37 38 39
39 41 40 39 39 39 40 41 41 40 40 39 38 37 37 37 36 36 37 37 36 35 35 33 33 33 33 33 34 34 34 34 35 35 35 35 35 36 36 36 37 37 38 40
39 41 41 39 38 37 38 40 41 40 39 39 39 37 36 35 36 36 36 35 35 35 35 34 32 32 32 33 33 34 34 34 34 34 34 35 35 35 36 36 37 38 39 40
39 40 41 40 40 40 39 39 41 40 39 39 38 38 37 36 36 36 35 34 34 34 33 33 33 32 32 33 33 33 33 33 33 33 34 34 35 35 36 37 38 38 39 40
38 40 41 43 42 40 40 40 40 40 40 38 37 38 37 36 35 35 34 34 34 33 33 33 32 32 32 32 33 33 33 33 33 34 34 34 34 35 36 37 38 39 40 41
39 40 42 43 43 41 40 41 40 39 39 39 38 37 36 35 34 34 34 33 33 33 33 33 33 32 32 33 33 33 33 33 33 33 34 34 34 35 36 37 38 39 40 42
39 40 40 41 41 40 41 41 40 39 39 39 38 36 35 35 34 33 33 33 33 33 33 32 32 33 33 32 32 32 33 33 33 34 34 34 35 36 36 37 38 39 41 42
37 39 39 39 39 39 39 39 39 40 40 39 38 35 34 33 33 33 33 33 33 33 33 32 32 32 32 32 32 32 33 33 33 33 34 34 35 36 36 37 39 40 42 43
35 36 38 38 37 37 37 38 38 38 39 39 38 35 34 34 33 33 33 33 33 32 32 31 31 32 33 33 33 32 32 32 32 33 34 34 35 36 37 38 40 41 42 44
32 34 35 37 37 37 37 37 38 37 36 36 36 35 34 34 33 32 33 33 32 32 31 31 32 32 33 32 32 32 32 32 33 33 34 35 36 36 38 39 40 42 43 45
31 32 34 35 35 35 35 36 36 36 35 36 36 36 34 34 33 32 32 32 32 31 31 31 32 32 32 31 32 32 33 33 33 33 34 34 36 37 39 40 41 42 44 46
27 28 31 33 34 33 33 33 33 33 34 34 34 34 34 33 32 31 32 31 31 31 31 31 31 31 30 30 30 31 32 32 33 34 35 36 37 39 40 41 42 43 45 46
25 28 31 32 32 32 31 30 31 31 31 32 32 32 32 32 31 31 31 31 31 30 30 30 30 30 29 29 30 30 31 32 33 35 35 36 38 39 40 41 43 44 46 47
25 28 29 30 30 30 29 29 30 30 30 29 29 29 29 30 30 30 30 31 30 29 29 29 29 29 29 30 31 31 32 33 33 35 36 37 38 39 41 42 44 45 46 48
24 26 27 27 28 28 27 27 27 27 27 28 28 27 27 27 28 29 29 30 30 29 29 29 30 30 30 30 31 32 32 33 34 35 37 38 39 40 42 44 46 47 48 50
23 24 25 26 26 25 25 25 25 25 25 25 25 26 26 27 27 28 28 28 28 28 28 28 28 28 29 30 31 32 33 34 35 36 38 39 41 43 45 46 47 48 49 50
22 23 23 23 24 24 23 24 24 24 24 23 23 23 24 25 26 27 27 27 28 28 28 28 28 29 29 30 31 32 33 34 36 37 39 41 43 45 46 47 48 49 49 49
21 22 22 22 22 23 23 23 23 23 23 22 22 23 24 24 24 25 26 26 27 27 28 28 29 29 30 31 32 33 34 36 37 40 42 43 45 46 47 48 48 49 49 49
21 21 20 20 20 21 21 22 22 22 22 22 23 23 23 23 24 24 25 26 26 27 28 29 30 31 31 32 34 35 36 37 39 41 43 45 46 46 47 48 49 49 50 51
Wind_Direction
224 223 224 225 226 226 228 231 234 235 235 234 237 241 242 243 243 243 242 242 242 242 243 246 248 250 252 253 255 256 257 258 259 260 260 262 263 264 265 266 267 268 270 272
224 224 224 224 223 225 228 229 232 233 232 233 236 238 239 240 241 242 243 242 242 242 244 246 248 250 251 253 254 255 256 258 259 260 261 262 263 264 265 265 267 268 270 272
224 224 225 223 222 225 227 228 230 231 230 231 233 235 237 239 241 242 243 243 243 243 245 247 249 250 251 251 253 255 256 258 259 261 262 262 263 264 265 265 267 268 270 273
223 223 226 223 224 226 227 227 229 229 228 229 231 234 236 238 240 241 242 242 243 243 244 246 249 250 251 252 253 255 256 258 260 260 261 262 263 264 264 265 266 268 270 273
224 225 225 223 223 225 225 225 227 228 228 230 231 234 235 237 239 241 242 242 243 243 244 245 248 249 251 252 253 255 257 258 259 259 259 260 262 263 264 265 266 269 272 275
223 225 225 223 223 225 227 227 226 229 230 231 232 234 234 238 239 240 241 242 243 244 244 246 247 249 250 252 252 254 255 256 257 258 259 260 262 263 265 266 268 271 274 276
224 225 223 223 225 226 228 225 226 230 231 232 233 235 233 234 237 237 238 240 243 244 244 246 247 249 250 252 253 253 254 255 256 258 259 261 262 264 267 269 271 273 276 278
221 222 219 221 224 225 227 224 225 227 229 231 232 232 233 234 236 237 238 240 242 244 244 246 247 249 250 252 253 253 254 255 257 259 260 262 264 266 269 270 273 274 277 279
217 217 217 221 223 223 224 225 225 226 228 230 231 231 233 235 236 237 238 239 241 243 244 245 246 248 249 251 252 253 254 255 257 259 261 263 266 267 270 272 274 276 278 280
218 214 215 218 220 221 222 222 224 227 227 228 229 230 232 235 236 236 237 239 240 241 242 244 245 246 248 250 251 253 255 257 257 259 262 264 266 269 271 273 275 277 279 282
221 217 217 218 220 221 222 222 223 224 225 226 229 231 232 234 235 236 237 238 239 240 242 244 245 247 248 250 251 253 256 258 259 260 262 265 268 270 273 274 276 279 281 283
220 218 220 219 220 222 223 223 223 222 222 224 227 229 232 235 236 237 237 237 237 238 241 243 245 247 249 250 252 254 257 258 259 261 264 266 269 271 274 276 279 281 283 285
220 220 220 218 219 222 223 224 223 222 222 222 225 228 230 232 234 235 236 237 237 238 241 243 244 247 249 250 252 255 257 259 261 263 265 268 271 274 276 278 280 282 284 286
221 221 219 217 217 219 221 222 222 222 223 223 224 226 228 231 233 234 235 236 237 238 240 242 244 246 248 250 253 255 257 259 262 264 268 270 273 275 277 279 282 284 286 288
219 219 217 215 215 218 220 221 222 222 223 223 224 226 228 231 233 234 233 234 236 238 240 242 244 246 249 252 254 256 258 261 264 266 269 271 274 276 279 281 283 285 288 290
217 216 215 215 217 218 220 221 223 223 223 224 225 225 227 229 230 231 232 234 236 239 241 243 246 248 250 253 256 258 260 262 265 267 270 273 276 278 281 283 285 288 290 291
214 215 217 218 218 219 219 220 221 222 222 223 224 225 227 228 230 232 233 235 237 239 242 245 248 250 252 254 258 260 262 264 267 269 272 275 278 281 283 285 287 290 292 293
212 213 216 219 219 217 217 218 220 220 219 221 223 225 227 230 232 233 234 236 239 242 245 248 251 253 254 256 259 261 264 267 270 272 275 278 280 283 285 288 290 292 293 295
209 210 212 213 214 214 215 217 219 219 220 222 224 227 228 230 232 233 236 238 241 243 247 249 252 253 255 257 260 263 266 270 272 275 277 280 283 286 288 290 291 293 295 297
207 208 207 208 209 211 212 213 214 215 216 220 223 226 229 231 233 235 237 239 243 246 248 250 253 255 257 260 263 266 269 272 274 277 279 282 285 287 289 291 293 295 297 298
202 202 203 204 206 207 208 211 213 212 215 219 222 225 226 230 232 234 238 242 245 247 249 251 253 256 259 261 264 267 270 273 276 279 282 284 287 289 291 293 295 297 298 299
197 198 199 201 203 204 206 211 213 214 216 219 221 223 227 230 233 237 240 242 245 248 250 252 254 257 259 263 266 270 272 275 278 281 284 286 289 291 293 295 297 298 299 300
191 192 195 196 198 200 205 211 214 215 216 218 221 224 229 232 235 238 240 242 244 246 249 253 256 259 263 267 270 272 275 278 281 284 286 288 290 292 294 296 298 299 299 300
188 189 192 195 198 201 205 209 211 212 214 217 222 227 230 234 237 238 240 241 242 246 251 255 260 263 267 270 273 276 278 280 283 285 287 290 292 294 296 297 298 299 300 301
188 189 190 193 198 201 203 205 209 213 217 221 226 229 232 235 237 239 241 243 246 250 255 259 264 268 271 274 276 277 279 282 285 287 289 292 293 295 297 298 299 300 301 301
191 191 193 197 200 203 206 209 212 217 222 226 227 230 234 237 239 241 243 246 250 254 258 262 266 270 273 275 276 278 281 284 286 289 292 293 294 296 297 299 300 301 301 301
194 194 195 199 202 206 208 212 216 219 223 226 229 231 234 237 240 244 247 250 254 258 261 265 268 271 274 276 278 281 284 287 290 292 294 295 296 297 298 300 300 301 301 300